Location: ??
(34.7707°N, 135.6540°E)
Time: 05:02:05
(UTC+00:00)

Cosmos 2227 Rocket - Pass Details

Date: 09 April 2020
Orbit: 837 x 846 km, 71.0° (Epoch: 27 May)

Event Time Altitude Azimuth Distance (km) Brightness Sun altitude
Exits shadow 17:45:52 30° 342° (NNW) 1,470 3.5 -31.9°
Drops below altitude 10° 17:49:05 10° 6° (N) 2,461 5.1 -31.4°
Sets 17:51:41 0° 14° (NNE) 3,400 6.0 -30.9°
